(Y00) SONEAR Observatory, Oliveira (S20.71513 W44.78496)  Brazil.   Observers
    C. Jacques, E. Pimentel, J. Barros.  Measurer C. Jacques.  0.28-m f/2.2
    astrograph + CCD.

Orbital elements (future lunar flyby):  WE0913A = DSCOVR object = 2015-007B = NORAD 40391
   Perilune 2016 Jan 17.834928 +/- 0.000438 TT; A1=2.88e-9, A2=6.12e-10
Epoch 2016 Jan 18.0 TT = JDT 2457405.5                        Find_Orb
q 25311.2835 +/- 97.4
H   27.4  G 0.15                    Peri.   34.22757 +/- 0.043
                                    Node   104.16430 +/- 0.07
e   5.6776917 +/- 0.0191            Incl.   77.65159 +/- 0.045
From 81 observations 2015 Mar. 14-Oct. 18; mean residual 2".034

Orbital elements (current):  WE0913A = DSCOVR object = 2015-007B = NORAD 40391 
   Perigee 2015 Oct 19.423270 +/- 0.000188 TT; A1=2.88e-9, A2=6.12e-10
Epoch 2015 Oct 26.0 TT = JDT 2457321.5                        Find_Orb
M  53.96409 +/- 0.0019              (J2000 equatorial)
n   8.20530813 +/- 6.55e-5          Peri.   29.56666 +/- 0.0022
a525460.703 +/- 2.79                Node    40.30468 +/- 0.00016
e   0.2095593 +/- 4.73e-6           Incl.   65.10036 +/- 0.00010
P  43.87d                  H 27.4   G  0.15   U  6.3
q 415345.494 +/- 0.754    Q 635575.912 +/- 5.8
From 81 observations 2015 Mar. 14-Oct. 18; mean residual 2".034

Orbital elements (original lunar flyby):  WE0913A = DSCOVR object = 2015-007B = NORAD 40391 
   Perilune 2015 Feb 13.858977 +/- 2.32e-5 TT; A1=2.88e-9, A2=6.12e-10
Epoch 2015 Feb 14.0 TT = JDT 2457067.5                        Find_Orb
q 19982.1433 +/- 5.35
H   27.4  G 0.15                    Peri.  149.68390 +/- 0.0022
                                    Node     5.25695 +/- 0.0037
e   3.9823386 +/- 0.000792          Incl.   94.90071 +/- 0.0018
From 81 observations 2015 Mar. 14-Oct. 18; mean residual 2".034
Residuals in arcseconds: 
150314 703 3.63+ .413-    150324 G96 1.39+ 1.31+    150429 568 .880- .478-
150314 703 3.34+ .171-    150324 G96 1.39+ 1.39+    150429 568 1.05- .331-
150314 703 3.32+ .135-    150324 G96 1.17+ 1.27+    150429 568 1.01- .478-
150314 703 2.98+ .076-    150324 G96 1.47+ 1.16+    150429 568 1.08- .360-
150314 U69 3.46+ .295-    150324 G96 1.42+ 1.18+    150429 568 1.05- .172-
150314 U69 3.56+ .184-    150324 G96 1.30+ 1.33+    150429 568 1.06- .194-
150314 U69 3.07+ .046+    150324 G96 1.46+ 1.11+    150429 568 1.08- .066-
150314 U69 3.27+ .099+    150428 718 2.63- 2.75+    150429 J95 .028- 1.59-
150314 703 3.26+ .276-    150428 718 2.43- 3.00+    150429 J95 .089+ 1.52-
150314 703 3.25+ .077-    150428 718 2.67- 3.34+    150429 J95 .065+ 1.52-
150314 703 3.34+ .025+    150428 718 2.54- 3.05+    150714 F51 1.10+ .909+
150314 703 3.23+ .042-    150428 718 2.58- 3.15+    150714 F51 1.03+ 1.26+
150314 703 3.22+ .035-    150428 718 2.47- 2.85+    150714 F51 .967+ 1.62+
150314 703 2.49+ .023-    150428 XXX 2.77- 2.76+    150714 F51 .880+ .300+
150314 703 1.87+ .573+    150428 XXX 2.76- 2.15+    150714 F51 1.42+ .433+
150314 703 2.36+ .272+    150428 XXX 1.53- .952-    150714 F51 1.23+ .805+
150314 703 2.93+ .476+    150428 XXX 1.85- .876+    150714 F51 1.08+ .840+
150314 703 2.76+ .078+    150428 XXX 1.71- 2.30+    151014 703 .019+ .435-
150316 G96 3.91- 6.11+    150428 XXX 2.79- .705+    151014 703 .253+ .738-
150316 G96 3.91- 6.06+    150428 XXX 1.60- .986-    151014 703 .158+ 1.04-
150316 G96 4.05- 6.08+    150428 XXX 1.95- 1.92+    151014 703 .021+ .281+
150316 G96 4.06- 5.95+    150428 XXX 1.96- 1.31+    151015 Y00 .578+ 1.71+
150324 G96 1.24+ 1.89+    150428 XXX .946- 1.12-    151015 Y00 .505+ 1.19+
150324 G96 1.36+ 1.31+    150428 XXX 1.78- .913+    151015 Y00 .834+ .429+
150324 G96 1.54+ 1.11+    150428 XXX 2.00- 1.55+    151018 Y00 .483+ 2.37-
150324 G96 1.33+ 1.29+    150428 XXX 1.86- .696-    151018 Y00 .357+ 2.01-
150324 G96 1.33+ 1.57+    150428 XXX 1.72- 1.50+    151018 Y00 .939+ 2.84-

Ephemerides (geocentric):
Date (UT)    RA              Dec         delta   r     elong  mag " sig PA
---- -- --  ------------   ------------  ------ ------ -----  --- ---- ---
2015 10 25  09 36 20.627   +64 27 01.80  463287 0.9946  90.3 18.0  2.4 102
2015 10 26  10 57 23.339   +60 44 53.10  478611 0.9938  81.3 18.4  2.6 121
2015 10 27  11 54 11.708   +55 07 08.52  494499 0.9930  72.9 18.9  2.7 134
2015 10 28  12 33 32.015   +48 41 15.25  510620 0.9923  64.9 19.5  2.9 142
2015 10 29  13 02 01.460   +42 01 15.78  526734 0.9916  57.5 20??  3.1 147
2015 10 30  13 23 49.768   +35 22 52.09  542674 0.9909  50.4 20??  3.3 151
2015 10 31  13 41 23.420   +28 53 10.95  558320 0.9902  43.7 21??  3.5 153
2015 11 01  13 56 09.993   +22 35 19.22  573585 .98963  37.3 22??  3.7 155
2015 11 02  14 09 04.137   +16 30 28.90  588402 .98907  31.3 23??  3.9 156
2015 11 03  14 20 41.643   +10 38 55.58  602713 .98854  25.6 24??  4.0 157
2015 11 04  14 31 27.146   +05 00 26.92  616467 .98806  20.2 26??  4.2 157
2015 11 05  14 41 38.488   -00 25 22.87  629608 .98762  15.0 28??  4.3 157
2015 11 06  14 51 29.304   -05 39 05.54  642078 .98722  10.3 32??  4.4 157
2015 11 07  15 01 10.628   -10 41 14.65  653811 .98685   6.5 37??  4.5 157
2015 11 08  15 10 51.958   -15 32 23.25  664728 .98653   5.0 41??  4.6 156
2015 11 09  15 20 42.046   -20 13 02.22  674736 .98624   7.2 36??  4.7 155
2015 11 10  15 30 49.579   -24 43 38.95  683726 .98599  10.9 31??  4.7 154
2015 11 11  15 41 23.931   -29 04 36.08  691573 .98578  14.9 28??  4.7 153
2015 11 12  15 52 36.016   -33 16 10.96  698149 .98560  18.9 27??  4.7 151
2015 11 13  16 04 39.056   -37 18 35.72  703346 .98545  22.9 25??  4.7 149
2015 11 14  16 17 49.023   -41 11 55.27  707093 .98533  26.8 24??  4.7 147
2015 11 15  16 32 25.053   -44 56 00.66  709347 .98525  30.8 24??  4.7 145
2015 11 16  16 48 50.344   -48 30 19.09  710075 .98519  34.7 23??  4.7 141
2015 11 17  17 07 33.438   -51 53 42.94  709240 .98517  38.5 22??  4.6 138
2015 11 18  17 29 09.318   -55 04 16.67  706796 .98517  42.4 22??  4.6 133
2015 11 19  17 54 19.373   -57 58 59.91  702689 .98519  46.3 21??  4.5 128
2015 11 20  18 23 48.351   -60 33 27.00  696859 .98524  50.2 21??  4.5 121
2015 11 21  18 58 15.034   -62 41 28.70  689241 .98532  54.2 20??  4.4 113
2015 11 22  19 37 53.087   -64 15 11.47  679766 .98541  58.2 20??  4.4 104
2015 11 23  20 22 03.904   -65 05 40.45  668363 .98553  62.4 20.2  4.3  94
2015 11 24  21 08 58.038   -65 04 43.53  654962 .98567  66.6 19.9  4.3  83
2015 11 25  21 55 52.530   -64 07 02.69  639498 .98583  71.1 19.6  4.2  73
2015 11 26  22 40 07.408   -62 11 20.85  621914 .98600  75.7 19.3  4.2  62
2015 11 27  23 20 00.280   -59 19 24.31  602175 .98619  80.7 18.9  4.1  54
2015 11 28  23 55 00.378   -55 33 47.53  580279 .98640  85.9 18.6  4.1  46
2015 11 29  00 25 28.601   -50 55 49.09  556273 .98661  91.6 18.3  4.1  40
2015 11 30  00 52 11.026   -45 24 18.76  530284 .98682  97.9 17.9  4.1  35
2015 12 01  01 16 01.347   -38 55 05.75  502551 .98704 104.9 17.6  4.2  31
2015 12 02  01 37 53.590   -31 20 49.51  473482 .98724 112.7 17.2  4.2  27
2015 12 03  01 58 42.065   -22 31 10.39  443725 .98741 121.5 16.8  4.3  25
2015 12 04  02 19 26.637   -12 13 44.18  414265 .98755 131.5 16.4  4.4  24
2015 12 05  02 41 24.653   -00 16 45.03  386526 .98763 142.7 15.9  4.6  23
2015 12 06  03 06 36.776   +13 24 25.94  362429 .98762 154.4 15.4  4.8  24
2015 12 07  03 38 49.424   +28 34 35.37  344265 .98749 162.4 15.1  5.0  27
2015 12 08  04 26 23.336   +44 17 10.50  334239 .98723 157.5 15.2  5.2  35
2015 12 09  05 49 21.225   +58 14 43.45  333695 .98683 143.4 15.6  5.3  52
2015 12 10  08 15 50.377   +65 31 56.18  342479 .98631 127.6 16.1  5.3  85
2015 12 11  10 49 02.735   +61 57 15.31  359012 .98571 112.5 16.6  5.2 120
2015 12 12  12 17 42.087   +52 21 15.46  381005 .98507  98.9 17.2  5.1 139
2015 12 13  13 06 06.045   +41 41 49.70  406219 .98443  87.1 17.8  5.0 148
2015 12 14  13 36 27.073   +31 34 14.14  432863 .98380  77.0 18.4  4.8 152
2015 12 15  13 58 01.969   +22 19 14.59  459670 .98321  68.3 19.0  4.7 155
2015 12 16  14 14 52.776   +13 56 28.14  485812 .98266  60.8 19.6  4.6 156
2015 12 17  14 28 58.454   +06 19 57.41  510780 .98216  54.4 20??  4.6 156
2015 12 18  14 41 24.698   -00 37 02.29  534281 .98171  49.0 20??  4.5 156
2015 12 19  14 52 51.828   -07 00 35.56  556164 .98130  44.4 21??  4.4 156
2015 12 20  15 03 47.222   -12 55 46.05  576359 .98094  40.5 22??  4.4 155
2015 12 21  15 14 31.446   -18 26 37.80  594845 .98063  37.4 22??  4.3 154
2015 12 22  15 25 21.594   -23 36 22.86  611624 .98036  34.9 22??  4.2 153
2015 12 23  15 36 33.308   -28 27 29.47  626703 .98014  33.1 23??  4.2 152
2015 12 24  15 48 22.152   -33 01 48.59  640087 .97995  31.9 23??  4.1 150
2015 12 25  16 01 04.677   -37 20 38.15  651774 .97980  31.2 23??  4.0 148
2015 12 26  16 14 59.363   -41 24 44.71  661752 .97969  31.0 23??  4.0 146
2015 12 27  16 30 27.502   -45 14 22.13  670004 .97961  31.2 23??  3.9 143
2015 12 28  16 47 53.975   -48 49 07.40  676504 .97956  31.9 23??  3.8 140
2015 12 29  17 07 47.677   -52 07 53.18  681223 .97954  32.8 23??  3.7 136
2015 12 30  17 30 41.022   -55 08 37.48  684130 .97956  34.0 23??  3.6 131
2015 12 31  17 57 07.385   -57 48 11.89  685195 .97960  35.4 23??  3.6 125
2016 01 01  18 27 34.774   -60 02 12.61  684384 .97967  37.1 22??  3.5 118
2016 01 02  19 02 14.107   -61 45 03.52  681665 .97976  38.8 22??  3.4 110
2016 01 03  19 40 43.226   -62 50 24.86  677006 .97988  40.8 22??  3.3 101
2016 01 04  20 21 54.370   -63 12 17.15  670373 .98003  42.9 22??  3.2  92
2016 01 05  21 03 58.699   -62 46 26.56  661735 .98020  45.1 21??  3.2  82
2016 01 06  21 44 54.243   -61 31 27.07  651060 .98040  47.6 21??  3.1  73
2016 01 07  22 23 02.737   -59 28 35.51  638320 .98062  50.2 21??  3.0  64
2016 01 08  22 57 31.296   -56 40 42.79  623488 .98086  53.0 20??  3.0  56
2016 01 09  23 28 10.713   -53 10 46.17  606547 .98113  56.1 20??  2.9  49
2016 01 10  23 55 20.811   -49 00 41.74  587494 .98142  59.4 20??  2.9  43
2016 01 11  00 19 35.515   -44 10 46.02  566344 .98174  63.2 19.8  2.9  38
